DECAYED

STARLINK-1707, 46359 (Decayed)

Orbit data source: Space-Track

STARLINK-1707, 46359 was a payload satellite owned by SpaceX/Seattle (US) in LEO that was launched on Thu, 03 Sep 2020 UTC via an FALCON 9 launch vehicle from the Air Force Eastern Test Range (AFETR). Payload-class satellites include a variety of spacecraft equipped with specific instruments for various scientific and technological missions. These include communications satellites like Starlink; space stations such as the ISS; scientific satellites like the Hubble; Earth observation satellites from companies like Planet Labs, Umbra, and HawkEye 360; GPS; miniature CubeSats for education and research; and military/defense satellites.

Not visible in the next 10 days
Identifier
46359, 2020-062AL
Orbit
Decayed
Country
Flag of USUS
Related business
Manufacturer
SpaceX/Seattle
Mission
Decayed Commercial Communications
Bus & Motor
STARLINK, Unknown motor
Mass
260 kg wet, ~248 kg dry
Launch date (UTC)
2020-09-03 (6 years ago)
Launch vehicle
FALCON 9
Launch site
Air Force Eastern Test Range (AFETR)
Object type
Payload
Rocket body
Debris
Shape & HBR
Box + 1 Pan, 10.1 m
Radar Cross Section
13.562 m², Large (>1 m²)

Expand to show TLE details & history
Last TLE update: 2 months ago

TLE from 2 months ago
0 STARLINK-1707
1 46359U 20062AL  26192.05190480  .08024522  12439-4  37730-3 0  9993
2 46359  53.0004  13.4681 0011304 274.7289  85.2467 16.42151991325261
Epoch: 2026-07-11T01:14Z
TLE epoch observation values (Epoch: 2026-07-11T01:14:44.574Z)
Latitude
-0.00002°
Longitude
65.81169°
Altitude
160.405 km
Speed
7.812 km/s
True Right ascension
00h 53m 52s
True Declination
0° 00' 00"
Sunlit
Object was in daylight at epoch
Visualization orbit readout
Latitude
Unknown
Longitude
Unknown
Altitude
Unknown
Speed
Unknown
Apparent Right ascension
Unknown
Apparent Declination
Unknown
Sunlit
N/A
Visualization observer readout
Local Sidereal Time
06:15:06
Azimuth
Unknown
Elevation
Unknown
Doppler factor
Unknown
Orbital elements
Apogee altitude
167.771 km
Perigee altitude
152.988 km
Semi-major axis
6,538.517 km
Eccentricity
0.00113
Inclination
53.0004°
RAAN
13.4681°
Arg. of periapsis
274.7289°
True anomaly
85.3758°
Mean anomaly
85.2467°
Eccentric anomaly
85.31125°
Mean motion
4.10511 °/min
Orbital period
87.7 mins
BSTAR
0.0003773
Loading maneuver chart data...
Computing Atmospheric mass density...

Documentation

Showing up to 5 results
|